Regional Weather Roundup
Issued by NWS Little Rock, AR

Home | Current Version | Previous Version | Graphics & Text | Print | Product List | Glossary On
Versions: 1 2 3 4 5 6 7 8 9 10 11 12 13 14 15 16 17 18 19 20 21 22 23 24 25 26 27 28 29 30 31 32 33 34 35 36 37 38 39 40 41 42 43 44 45 46 47 48 49 50
000
ASUS44 KLZK 251305
RWRLZK

WEATHER ROUNDUP FOR ARKANSAS
NATIONAL WEATHER SERVICE LITTLE ROCK AR
700 AM CST SAT FEB 25 2017

NOTE: "FAIR" INDICATES FEW OR NO CLOUDS BELOW 12,000 FEET WITH NO
SIGNIFICANT WEATHER AND/OR OBSTRUCTIONS TO VISIBILITY.

ARZ001-003-010-029-251400-
NORTHWEST ARKANSAS

CITY           SKY/WX    TMP DP  RH WIND       PRES   REMARKS
FAYETTEVILLE   CLEAR     22  16  78 CALM      30.14R
FORT SMITH     CLEAR     29  18  63 NW7       30.18R WCI  22
HARRISON       CLEAR     23  16  74 W7        30.10R WCI  15
BENTONVILLE    CLEAR     23  16  74 N5        30.13R WCI  17
ROGERS         CLEAR     22  17  81 NW7       30.13R WCI  13
SILOAM SPGS    CLEAR     21  16  79 W3        30.15R
HIGHFILL       CLEAR     22  16  78 W6        30.14R WCI  14
SPRINGDALE     CLEAR     23  16  74 W5        30.15R WCI  17
$$

ARZ004-005-016-251400-
NORTH CENTRAL ARKANSAS

CITY           SKY/WX    TMP DP  RH WIND       PRES   REMARKS
BATESVILLE     CLEAR     30  18  59 W9G17     30.11R WCI  22
FLIPPIN        CLEAR     27  12  54 NW10      30.10R WCI  17
MTN HOME       CLEAR     25  16  68 N8        30.09R WCI  16
$$

ARZ040-041-251400-
WEST CENTRAL ARKANSAS

CITY           SKY/WX    TMP DP  RH WIND       PRES   REMARKS
MENA           CLEAR     32  25  74 NW5       30.13R WCI  27
MOUNT IDA      CLEAR     31  21  66 NW7       30.11R WCI  24
$$

ARZ009-017-025-026-028-251400-
NORTHEAST ARKANSAS

CITY           SKY/WX    TMP DP  RH WIND       PRES   REMARKS
CORNING        FAIR      32  18  55 NW20G26   30.08R WCI  20
JONESBORO      CLEAR     32  21  64 NW6       30.08R WCI  26
NEWPORT        CLEAR     30  23  75 MISG      30.10
WALNUT RIDGE   CLEAR     30  18  59 NW14      30.08R WCI  20
BLYTHEVILLE    CLEAR     33  23  66 NW12      30.07R WCI  24
$$

ARZ022-023-033-042-044-251400-
CENTRAL ARKANSAS

CITY           SKY/WX    TMP DP  RH WIND       PRES   REMARKS
LITTLE ROCK    CLEAR     33  23  66 NW10      30.12S WCI  25
N LITTLE ROCK    N/A     32  23  69 N6        30.12R WCI  26
JACKSONVILLE   CLEAR     33  21  62 NW7       30.11R WCI  26
SEARCY         CLEAR     32  20  61 NW7       30.13R WCI  26
HOT SPRINGS    CLEAR     33  22  63 NW7       30.12R WCI  27
RUSSELLVILLE   CLEAR     32  20  61 NW8       30.13R WCI  25
CLINTON        FAIR      30  16  55 NW8G15    30.12S WCI  23
$$

ARZ036-251400-
EAST ARKANSAS

CITY           SKY/WX    TMP DP  RH WIND       PRES   REMARKS
WEST MEMPHIS   CLEAR     34  25  69 NW8       30.08R WCI  27
$$

ARZ050-053-066-070-073-251400-
SOUTHWEST ARKANSAS

CITY           SKY/WX    TMP DP  RH WIND       PRES   REMARKS
ARKADELPHIA    FAIR      33  24  69 CALM      30.15R
CAMDEN         CLEAR     32  25  74 CALM      30.16R
TEXARKANA      CLEAR     33  22  63 NW6       30.16R WCI  28
EL DORADO      CLEAR     36  24  62 NW7       30.14R
DE QUEEN       CLEAR     30  25  81 NW5       30.14R WCI  25
$$

ARZ056-057-069-251400-
SOUTHEAST ARKANSAS

CITY           SKY/WX    TMP DP  RH WIND       PRES   REMARKS
PINE BLUFF     CLEAR     35  24  64 NW12G20   30.13R WCI  27
STUTTGART      CLEAR     34  19  55 NW12      30.11S WCI  25
MONTICELLO     CLEAR     37  25  61 NW8       30.11R

$$





USA.gov is the U.S. government's official web portal to all federal, state and local government web resources and services.